• In United Kingdom
  • List of Countries
  • For 7 days
  • Water Temperature
  • Satellite Maps
  • Weather Map
  • Weather Widgets
  • user-avatar
    Login

    Hourly Weather Ciecholewy

    Today, 17 July, Tuesday

    Time Temperature Precipitation Wind Pressure Humidity
    00:00 +19°C° 0.4 mm 2 mps 749 mmHg 95%
    01:00 +19°C° 0 mm 2 mps 749 mmHg 96%
    02:00 +19°C° 0.7 mm 3 mps 749 mmHg 96%
    03:00 +19°C° 0.7 mm 3 mps 749 mmHg 96%
    04:00 +19°C° 0.7 mm 3 mps 748 mmHg 96%
    05:00 +19°C° 0.3 mm 3 mps 748 mmHg 94%
    06:00 +20°C° 0.3 mm 3 mps 748 mmHg 93%
    07:00 +20°C° 0 mm 4 mps 748 mmHg 91%
    08:00 +21°C° 0.7 mm 4 mps 748 mmHg 90%
    09:00 +21°C° 0.7 mm 4 mps 748 mmHg 88%
    10:00 +22°C° 0.7 mm 4 mps 748 mmHg 86%
    11:00 +22°C° 1.1 mm 4 mps 748 mmHg 87%
    12:00 +22°C° 1.1 mm 4 mps 748 mmHg 87%
    13:00 +22°C° 1.1 mm 5 mps 748 mmHg 88%
    14:00 +21°C° 0.9 mm 5 mps 747 mmHg 89%
    15:00 +21°C° 0.9 mm 5 mps 747 mmHg 91%
    16:00 +20°C° 0.9 mm 5 mps 747 mmHg 92%
    17:00 +20°C° 0.8 mm 5 mps 747 mmHg 93%
    18:00 +20°C° 0.8 mm 4 mps 747 mmHg 94%
    19:00 +20°C° 0.8 mm 4 mps 747 mmHg 95%
    20:00 +20°C° 1.8 mm 5 mps 747 mmHg 95%
    21:00 +20°C° 1.8 mm 5 mps 747 mmHg 96%
    22:00 +20°C° 1.8 mm 5 mps 747 mmHg 96%
    23:00 +20°C° 1.2 mm 5 mps 747 mmHg 96%

    Tomorrow, 18 July, Wednesday

    Time Temperature Precipitation Wind Pressure Humidity
    00:00 +20°C° 1.2 mm 4 mps 747 mmHg 97%
    01:00 +19°C° 1.2 mm 4 mps 747 mmHg 97%
    02:00 +19°C° 0.5 mm 4 mps 747 mmHg 97%
    03:00 +19°C° 0.5 mm 3 mps 747 mmHg 97%
    04:00 +19°C° 0.5 mm 3 mps 747 mmHg 97%
    05:00 +20°C° 0.2 mm 3 mps 747 mmHg 95%
    06:00 +21°C° 0.2 mm 3 mps 747 mmHg 94%
    07:00 +22°C° 0.2 mm 3 mps 747 mmHg 92%
    08:00 +24°C° 0.5 mm 3 mps 747 mmHg 87%
    09:00 +25°C° 0.5 mm 3 mps 747 mmHg 83%
    10:00 +26°C° 0.5 mm 4 mps 748 mmHg 78%
    11:00 +26°C° 1.2 mm 4 mps 748 mmHg 78%
    12:00 +27°C° 1.2 mm 4 mps 748 mmHg 78%
    13:00 +27°C° 1.2 mm 4 mps 748 mmHg 77%
    14:00 +26°C° 0.8 mm 5 mps 748 mmHg 79%
    15:00 +26°C° 0.8 mm 5 mps 748 mmHg 81%
    16:00 +25°C° 0.8 mm 5 mps 748 mmHg 82%
    17:00 +25°C° 0.1 mm 5 mps 749 mmHg 84%
    18:00 +23°C° 0.1 mm 4 mps 749 mmHg 87%
    19:00 +22°C° 0.1 mm 4 mps 749 mmHg 89%
    20:00 +21°C° 0 mm 4 mps 749 mmHg 90%
    21:00 +21°C° 0 mm 4 mps 749 mmHg 91%
    22:00 +20°C° 0 mm 4 mps 749 mmHg 92%
    23:00 +20°C° 0 mm 4 mps 749 mmHg 92%

    Day after tomorrow, 19 July, Thursday

    Time Temperature Precipitation Wind Pressure Humidity
    00:00 +20°C° 0 mm 4 mps 749 mmHg 92%
    01:00 +19°C° 0 mm 3 mps 749 mmHg 91%
    02:00 +19°C° 0 mm 3 mps 749 mmHg 91%
    03:00 +19°C° 0 mm 3 mps 750 mmHg 91%
    04:00 +19°C° 0 mm 3 mps 750 mmHg 91%
    05:00 +20°C° 0 mm 3 mps 750 mmHg 88%
    06:00 +21°C° 0 mm 3 mps 750 mmHg 85%
    07:00 +22°C° 0 mm 3 mps 750 mmHg 83%
    08:00 +24°C° 0.1 mm 3 mps 750 mmHg 77%
    09:00 +25°C° 0.1 mm 3 mps 750 mmHg 72%
    10:00 +27°C° 0.1 mm 3 mps 750 mmHg 67%
    11:00 +27°C° 0.1 mm 4 mps 750 mmHg 63%
    12:00 +28°C° 0.1 mm 4 mps 750 mmHg 60%
    13:00 +28°C° 0.1 mm 4 mps 751 mmHg 56%
    14:00 +28°C° 0.1 mm 4 mps 751 mmHg 58%
    15:00 +28°C° 0.1 mm 4 mps 751 mmHg 60%
    16:00 +27°C° 0.1 mm 4 mps 751 mmHg 62%
    17:00 +26°C° 0.1 mm 4 mps 751 mmHg 68%
    18:00 +23°C° 0.1 mm 4 mps 751 mmHg 74%
    19:00 +22°C° 0.1 mm 4 mps 751 mmHg 80%
    20:00 +21°C° 0 mm 3 mps 751 mmHg 83%
    21:00 +20°C° 0 mm 3 mps 751 mmHg 87%
    22:00 +18°C° 0 mm 3 mps 751 mmHg 91%
    23:00 +18°C° 0 mm 3 mps 751 mmHg 91%

    20 July, Friday

    Time Temperature Precipitation Wind Pressure Humidity
    00:00 +18°C° 0 mm 3 mps 751 mmHg 91%
    01:00 +18°C° 0 mm 3 mps 751 mmHg 91%
    02:00 +18°C° 0 mm 3 mps 751 mmHg 91%
    03:00 +17°C° 0 mm 3 mps 751 mmHg 91%
    04:00 +17°C° 0 mm 3 mps 751 mmHg 91%
    05:00 +19°C° 0 mm 3 mps 751 mmHg 86%
    06:00 +20°C° 0 mm 3 mps 751 mmHg 82%
    07:00 +21°C° 0 mm 3 mps 751 mmHg 78%
    08:00 +24°C° 0 mm 3 mps 751 mmHg 72%
    09:00 +25°C° 0 mm 3 mps 751 mmHg 67%
    10:00 +26°C° 0 mm 4 mps 751 mmHg 61%
    11:00 +27°C° 0 mm 4 mps 751 mmHg 58%
    12:00 +27°C° 0 mm 4 mps 751 mmHg 55%
    13:00 +28°C° 0 mm 5 mps 751 mmHg 52%
    14:00 +27°C° 0 mm 5 mps 751 mmHg 54%
    15:00 +27°C° 0 mm 5 mps 751 mmHg 56%
    16:00 +26°C° 0 mm 5 mps 751 mmHg 58%
    17:00 +25°C° 0 mm 5 mps 751 mmHg 64%
    18:00 +23°C° 0 mm 4 mps 750 mmHg 69%
    19:00 +21°C° 0 mm 4 mps 750 mmHg 74%
    20:00 +20°C° 0 mm 4 mps 750 mmHg 77%
    21:00 +19°C° 0 mm 4 mps 750 mmHg 79%
    22:00 +18°C° 0 mm 4 mps 750 mmHg 82%
    23:00 +18°C° 0 mm 4 mps 750 mmHg 82%

    21 July, Saturday

    Time Temperature Precipitation Wind Pressure Humidity
    00:00 +17°C° 0 mm 3 mps 750 mmHg 82%
    01:00 +17°C° 0 mm 3 mps 750 mmHg 82%
    02:00 +17°C° 0 mm 3 mps 750 mmHg 82%
    03:00 +17°C° 0 mm 3 mps 750 mmHg 83%
    04:00 +16°C° 0 mm 3 mps 750 mmHg 84%
    05:00 +18°C° 0 mm 3 mps 750 mmHg 80%
    06:00 +19°C° 0 mm 3 mps 750 mmHg 76%
    07:00 +21°C° 0 mm 3 mps 750 mmHg 73%
    08:00 +22°C° 0 mm 4 mps 750 mmHg 68%
    09:00 +25°C° 0 mm 4 mps 750 mmHg 64%
    10:00 +26°C° 0 mm 4 mps 750 mmHg 59%
    11:00 +27°C° 0 mm 4 mps 750 mmHg 57%
    12:00 +27°C° 0 mm 4 mps 750 mmHg 56%
    13:00 +27°C° 0 mm 4 mps 750 mmHg 54%
    14:00 +27°C° 0.1 mm 4 mps 750 mmHg 56%
    15:00 +26°C° 0.1 mm 4 mps 750 mmHg 58%
    16:00 +26°C° 0.1 mm 5 mps 749 mmHg 59%
    17:00 +23°C° 0 mm 4 mps 749 mmHg 64%
    18:00 +22°C° 0 mm 4 mps 749 mmHg 68%
    19:00 +21°C° 0 mm 3 mps 749 mmHg 73%
    20:00 +19°C° 0 mm 3 mps 750 mmHg 77%
    21:00 +18°C° 0 mm 3 mps 750 mmHg 81%
    22:00 +17°C° 0 mm 2 mps 750 mmHg 85%
    23:00 +16°C° 0 mm 3 mps 750 mmHg 86%

    22 July, Sunday

    Time Temperature Precipitation Wind Pressure Humidity
    00:00 +16°C° 0 mm 3 mps 750 mmHg 87%
    01:00 +16°C° 0 mm 3 mps 750 mmHg 89%
    02:00 +16°C° 0 mm 3 mps 749 mmHg 89%
    03:00 +16°C° 0 mm 3 mps 749 mmHg 90%
    04:00 +14°C° 0 mm 3 mps 749 mmHg 91%
    05:00 +17°C° 0 mm 3 mps 750 mmHg 84%
    06:00 +19°C° 0 mm 4 mps 750 mmHg 77%
    07:00 +20°C° 0 mm 4 mps 750 mmHg 70%
    08:00 +21°C° 0 mm 4 mps 750 mmHg 65%
    09:00 +22°C° 0 mm 4 mps 750 mmHg 60%
    10:00 +23°C° 0 mm 4 mps 750 mmHg 55%
    11:00 +25°C° 0 mm 4 mps 750 mmHg 54%
    12:00 +25°C° 0 mm 4 mps 750 mmHg 53%
    13:00 +26°C° 0 mm 4 mps 750 mmHg 52%
    14:00 +25°C° 0.1 mm 4 mps 750 mmHg 53%
    15:00 +25°C° 0.1 mm 4 mps 750 mmHg 55%
    16:00 +25°C° 0.1 mm 4 mps 750 mmHg 57%
    17:00 +22°C° 0.1 mm 4 mps 750 mmHg 63%
    18:00 +21°C° 0.1 mm 3 mps 750 mmHg 69%
    19:00 +20°C° 0.1 mm 3 mps 751 mmHg 75%
    20:00 +19°C° 0 mm 3 mps 751 mmHg 79%
    21:00 +17°C° 0 mm 3 mps 751 mmHg 83%
    22:00 +16°C° 0 mm 3 mps 751 mmHg 88%
    23:00 +16°C° 0 mm 3 mps 751 mmHg 89%
    Show more